This is the latest recevied weather packets stored in our database for station/object DELTON-WX. If no packets are shown the sender has not sent any weather packets the latest 10 day(s).
| Time | Temp. | Humidity | Pressure | Rain* | Wind** | Luminosity | Snow |
|---|---|---|---|---|---|---|---|
| 1778022947 | 10.56° C | 37% | 976.3 hPa | 0 mm | - | - | - |
| 1778022074 | 10.56° C | 37% | 976.3 hPa | 0 mm | - | - | - |
| 1778021148 | 10.56° C | 37% | 976.3 hPa | 0 mm | - | - | - |
| 1778020266 | 11.11° C | 39% | 976.6 hPa | 0 mm | - | - | - |
| 1778019346 | 11.67° C | 39% | 976.7 hPa | 0 mm | - | - | - |
| 1778018477 | 11.67° C | 39% | 976.7 hPa | 0 mm | - | - | - |
| 1778017546 | 11.67° C | 39% | 976.4 hPa | 0 mm | - | - | - |
| 1778016666 | 11.67° C | 40% | 976.3 hPa | 0 mm | - | - | - |
| 1778015746 | 11.67° C | 40% | 976.3 hPa | 0 mm | - | - | - |
| 1778014879 | 11.67° C | 40% | 976.3 hPa | 0 mm | - | - | - |
| 1778013946 | 11.67° C | 38% | 976.6 hPa | 0 mm | - | - | - |
| 1778013067 | 11.67° C | 37% | 975.9 hPa | 0 mm | - | - | - |
| 1778012146 | 11.67° C | 33% | 975.5 hPa | 0 mm | - | - | - |
| 1778011275 | 12.22° C | 33% | 975.5 hPa | 0 mm | - | - | - |
| 1778010345 | 12.22° C | 39% | 975.5 hPa | 0 mm | - | - | - |
| 1778009463 | 12.22° C | 39% | 975.5 hPa | 0 mm | - | - | - |
| 1778008548 | 12.22° C | 39% | 975.5 hPa | 0 mm | - | - | - |
| 1778007675 | 12.22° C | 39% | 975.5 hPa | 0 mm | - | - | - |
| 1778006748 | 12.22° C | 44% | 975.9 hPa | 0 mm | - | - | - |
| 1778005872 | 12.22° C | 43% | 975.1 hPa | 0 mm | - | - | - |
| 1778004948 | 11.67° C | 43% | 975.2 hPa | 0 mm | - | - | - |
| 1778004082 | 11.11° C | 43% | 975.2 hPa | 0 mm | - | - | - |
| 1778003149 | 11.67° C | 48% | 974.6 hPa | 0 mm | - | - | - |
| 1778002264 | 10° C | 47% | 973.9 hPa | 0 mm | - | - | - |
| 1778001349 | 10° C | 47% | 973.9 hPa | 0 mm | - | - | - |
* Rain latest hour (hover to see other rain measurements)
** Current wind speed in m/s (hover to see current wind gust speed)